Jalur Vip
Judi Bola Indo

Jackpot

Texas Poker Multi Jackpot System

Kini Telah hadir Jackpot SUPER ROYAL FLUSH

Kini Telah hadir Jackpot 2000 (khusus table VIP keatas).

Ikutilah global jackpot yang tersedia di system kami, dengan system jackpot terbaru dan pertama di indonesia, anda dapat membeli jackpot dengan harga 100 rupiah saja dan menangkan hadiahnya hingga puluhan juta rupiah.

Jackpot bukanlah suatu keharusan untuk dibeli, namun kami memberikan suatu fitur tambahan untuk member tercinta dari www.naga368.com.

Terdapat tiga pilihan harga jackpot yang bisa anda beli yaitu :100,500,1000 dan 2000(khusus table VIP Keatas) rupiah.

Hadiah dari Multi jackpot system www.naga368.com

  1. full house x 10 harga jackpot yang anda beli.
      (contoh:anda membeli 1000 maka:1000 X10 = 10.000)
  2. four of kind x 250 harga jackpot yang anda beli
      (contoh:anda membeli 1000 maka:1000 X250 = 250.000)
  3. Straight flush x 1200
      (contoh:anda membeli 1000 maka:1000 X1200 = 1.200.000)
  4. Royal flush x 10000 harga jackpot yang anda beli
      (contoh:anda membeli 1000 maka:1000 X10000 = 10.000.000)
  5. SUPER ROYAL FLUSH x 30000 harga jackpot yang anda beli
      (contoh:anda membeli 1000 maka:1000 X30000 = 30.000.000)

Kondisi kartu

  1. full house adalah kondisi kartu dimana kartu anda dan kartu tengah dengan total 7 kartu bisa mendapatkan nilai 5 kartu dengan kombinasi 1 tris(three of kind) dan 1 pair, contoh 3 kartu 10 dan 2 kartu 5
  2. Four of kind adalah kondisi kartu dimana kartu anda dan kartu tengah dengan total 7 kartu bisa mendapatkan nilai 5 kartu dengan kombinasi 4 kartu yang sama jumlah dan 1 kartu apapun juga contoh anda mendapatkan 4 buah kartu angka 3 dan 1 kartu apapun.
  3. Staright flush adalah kondisi kartu dimana kartu anda dan kartu tengah dengan total 7 kartu bisa mendapatkan nilai 5 kartu dengan kombinasi seri / staright dengan kembang yang sama contoh : urutan kartu dari angka 5, 6, 7, 8 , 9 10 dengan kembang yg sama misalnya as hati
  4. Royal flush adalah kondisi kartu dimana kartu anda dan kartu tengah dengan total 7 kartu bisa mendapatkan nilai 5 kartu dengan kombinasi seri / staright dengan kembang yang sama tetapi kartu tersebut haruslah dimulai dari 10. contoh 10, Queen, Jack, King dan aces dengan kembang yang sama
  5. Super Royal flush adalah kondisi kartu dimana Kedua kartu anda digabung dengan 3 kartu pertama meja haruslah royal flush. contoh kartu anda 10,Queen kembang sama dan 3 kartu pertama meja adalah Jack, King dan aces dengan kembang yang sama

Demikian adalah penjelasan dari Multi Jackpot www.naga368.com terima kasih dan selamat bermain salam hoki dari kami

Texas Poker Jackpot Winner

TOP SUPER ROYAL FLUSH
No.TanggalNamaPriceWin
114/12 20:48KABOJA999Super Royal flush3,000,000
214/12 14:49MELESETSuper Royal flush30,000,000
314/12 13:21PRM7878Super Royal flush3,000,000
414/12 05:54LK4DGOTAH55Super Royal flush3,000,000
514/12 03:38ALMUSALLI0Super Royal flush30,000,000
TOP ROYAL FLUSH
No.TanggalNamaPriceWin
115/12 02:03ASO37Royal flush10,000,000
215/12 01:58DEWARIRoyal flush5,000,000
315/12 01:55BXNMBKQ50URoyal flush2,000,000
415/12 01:43KAMEHAMERURoyal flush10,000,000
515/12 01:39W1NER26Royal flush2,000,000
TOP STRAIGHT FLUSH
No.TanggalNamaPriceWin
115/12 02:03ARDAN717Straight Flush600,000
215/12 02:02CUACK800Straight Flush600,000
315/12 02:02TOPET999Straight Flush600,000
415/12 02:01DYAZT69Straight Flush2,400,000
515/12 02:01MASNA09Straight Flush600,000
LATEST JACKPOT
No.TanggalNamaPriceWin
115/12 02:03ROSA70Full House5,000
215/12 02:03SIF44Full House2,000
315/12 02:03P3KCOKFull House5,000
415/12 02:03OALAH1313Full House5,000
515/12 02:03THATICAHFull House2,000
615/12 02:03CELENGB1Full House1,000
715/12 02:03KAKEK88888Full House20,000
815/12 02:03CAPON3333Full House10,000
915/12 02:03AYAMTEMPURFull House1,000
1015/12 02:03ARDAN717Straight Flush600,000
1115/12 02:03KITTY995Full House2,000
1215/12 02:03ROYALRAMBEFull House1,000
1315/12 02:03JUAS888Full House20,000
1415/12 02:03PARITUKK15Full House1,000
1515/12 02:03CLAUDE02Four Of A Kind125,000
1615/12 02:03AYTIRA83Full House5,000
1715/12 02:03TOLE_AJAFull House1,000
1815/12 02:03JEKRIHOKYFull House20,000
1915/12 02:03TAIMENNFour Of A Kind50,000
2015/12 02:03SANIP070Full House2,000
2115/12 02:03SEDANAFull House5,000
2215/12 02:03ASO37Royal flush10,000,000
2315/12 02:03CAKLA99Full House5,000
2415/12 02:03SERVER1988Full House1,000
2515/12 02:03XENIA94Full House1,000
2615/12 02:03JOANA26Full House2,000
2715/12 02:03IRA505Full House5,000
2815/12 02:03FC68C4A1Full House2,000
2915/12 02:03ETOK69Full House1,000
3015/12 02:03ORACLE_96Full House2,000
3115/12 02:03ACILELETFull House500
3215/12 02:03GUYS888Full House10,000
3315/12 02:03E561A9CCFull House2,000
3415/12 02:03TABAHPURBAFull House2,000
3515/12 02:03QQDENI610Full House2,000
3615/12 02:02ROLLS24Full House2,000
3715/12 02:02KIYU87Full House2,000
3815/12 02:02ANGKADUAFull House2,000
3915/12 02:02DARMI02Full House2,000
4015/12 02:02A05A3EE7Four Of A Kind125,000
4115/12 02:02EE3F5949Full House2,000
4215/12 02:02DEDI234Four Of A Kind50,000
4315/12 02:02ASEDFFull House5,000
4415/12 02:02TZ7D4N3JODFull House5,000
4515/12 02:02K_ICU99Full House1,000
4615/12 02:02RUSDAYAFull House1,000
4715/12 02:02MERAPEN99Full House10,000
4815/12 02:02OB6A5XLCTRFull House5,000
4915/12 02:02CEMMMMMM55Full House2,000
5015/12 02:02NI54Full House5,000

Domino Multi Jackpot System

Ikutilah global jackpot yang tersedia di system kami, dengan system jackpot terbaru dan pertama di indonesia, anda dapat membeli jackpot dengan harga 100 rupiah saja dan menangkan hadiahnya hingga puluhan juta rupiah.

Jackpot bukanlah suatu keharusan untuk dibeli, namun kami memberikan suatu fitur tambahan untuk member tercinta dari www.naga368.com.

Terdapat tiga pilihan harga jackpot yang bisa anda beli yaitu :100,500 dan 1000 rupiah.

Hadiah dari Multi jackpot system www.naga368.com

  1. Murni Kecil x 50 harga jackpot yang anda beli.
      (contoh:anda membeli 1000 maka:1000 X 50 = 50.000)
  2. Murni Besar x 50 harga jackpot yang anda beli
      (contoh:anda membeli 1000 maka:1000 X 50 = 50.000)
  3. BALAK x 100 harga jackpot yang anda beli
      (contoh:anda membeli 1000 maka:1000 X 100 = 100.000)
  4. ENAM DEWA x 6666 harga jackpot yang anda beli
      (contoh:anda membeli 1000 maka:1000 X 6666 = 6.666.000)

Demikian adalah penjelasan dari Multi Jackpot www.naga368.com terima kasih dan selamat bermain salam hoki dari kami

Domino Jackpot Winner

TOP ENAM DEWA
No.TanggalNamaPriceWin
115/12 01:59K4LEMPON6murni enam3,333,000
215/12 01:51JNCK19murni enam666,600
315/12 01:03SHR72murni enam6,666,000
415/12 00:57LEVIYmurni enam666,600
514/12 23:27BM1658murni enam6,666,000
TOP BALAK
No.TanggalNamaPriceWin
115/12 02:02WISESA82balak100,000
215/12 02:02C3PET21balak10,000
315/12 02:01PANIK9balak100,000
415/12 01:57AHCMADbalak50,000
515/12 01:54BM1658balak100,000
LATEST JACKPOT
No.TanggalNamaPriceWin
115/12 02:03ESGEPE3murni besar25,000
215/12 02:03SITA1235murni kecil5,000
315/12 02:03MARINES11murni besar50,000
415/12 02:02WISESA82balak100,000
515/12 02:02KIOK01murni besar50,000
615/12 02:02C3PET21balak10,000
715/12 02:02LMANDOR21murni kecil25,000
815/12 02:01KOLTIM99murni kecil50,000
915/12 02:01A11NUN99murni kecil50,000
1015/12 02:01LALUAIADITmurni besar50,000
1115/12 02:01PANIK9balak100,000
1215/12 02:01XCOYmurni besar50,000
1315/12 02:01SUBARJACKmurni besar50,000
1415/12 02:01RAJUD099murni besar50,000
1515/12 02:00TAMARA41murni kecil25,000
1615/12 02:00LEVIYmurni kecil5,000
1715/12 02:00KLEDAImurni kecil50,000
1815/12 02:00PUTUTCLPmurni kecil50,000
1915/12 01:59TEBE3murni kecil50,000
2015/12 01:59K4LEMPON6murni enam3,333,000
2115/12 01:59RXRIANmurni kecil50,000
2215/12 01:57AHCMADbalak50,000
2315/12 01:57BENZ002murni kecil5,000
2415/12 01:57ZENIUZ05murni besar25,000
2515/12 01:57BANTU999murni besar50,000
2615/12 01:55A451F42Bmurni kecil50,000
2715/12 01:55JEFRYYYmurni kecil5,000
2815/12 01:55DICKY70murni besar25,000
2915/12 01:54IDAMZmurni kecil25,000
3015/12 01:54IDK888446murni kecil5,000
3115/12 01:54BM1658balak100,000
3215/12 01:53NYUSSlucky99350,000
3315/12 01:53JAHE811murni kecil50,000
3415/12 01:52IBMFEZRV21balak50,000
3515/12 01:52JERIC77lucky9910,000
3615/12 01:52A6UNK100murni kecil5,000
3715/12 01:51MRONGOS55murni besar5,000
3815/12 01:51JNCK19murni enam666,600
3915/12 01:50KURUS800balak100,000
4015/12 01:50BL4R4NGmurni kecil25,000
4115/12 01:49MARINES11balak50,000
4215/12 01:49HUI23murni kecil25,000
4315/12 01:48BADIS99murni kecil25,000
4415/12 01:48VIC666balak10,000
4515/12 01:48L3B41balak10,000
4615/12 01:48RXRIANbalak100,000
4715/12 01:47SHAQIL44murni kecil50,000
4815/12 01:47TOTImurni kecil50,000
4915/12 01:47BANK1973murni besar50,000
5015/12 01:47ZIZ12lucky9925,000

Ceme Multi Jackpot System

Jackpot dilihat dari gabungan kartu pemain dengan kartu bandar. Bandar harus membeli jackpot sebanyak jumlah player yang sedang duduk. Sebagai contoh bila terdapat 3 pemain duduk bermain, dan bandar memutuskan untuk membeli jackpot Rp 1.000, maka pada periode tersebut bandar akan membeli jackpot sebanyak 3xRp1.000 = Rp3.000.

Jackpot bukanlah suatu keharusan untuk dibeli, namun kami memberikan suatu fitur tambahan untuk member tercinta dari www.naga368.com.

Terdapat tiga pilihan harga jackpot yang bisa anda beli yaitu :100,500 dan 1000 rupiah.

Hadiah dari Multi jackpot system www.naga368.com

  1. Murni Kecil x 50 harga jackpot yang anda beli.
      (contoh:anda membeli 1000 maka:1000 X 50 = 50.000)
  2. Murni Besar x 50 harga jackpot yang anda beli
      (contoh:anda membeli 1000 maka:1000 X 50 = 50.000)
  3. BALAK x 200 harga jackpot yang anda beli
      (contoh:anda membeli 1000 maka:1000 X 200 = 200.000)
  4. ENAM DEWA x 6666 harga jackpot yang anda beli
      (contoh:anda membeli 1000 maka:1000 X 6666 = 6.666.000)

Demikian adalah penjelasan dari Multi Jackpot www.naga368.com terima kasih dan selamat bermain salam hoki dari kami

Ceme Jackpot Winner

TOP ENAM DEWA
No.TanggalNamaPriceWin
115/12 01:54ALFARO1530murni enam3,333,000
215/12 01:43ABENKPROmurni enam666,600
315/12 01:43KITTY456murni enam3,333,000
415/12 01:28GLADIATORXmurni enam6,666,000
515/12 00:57SHUGHE22murni enam666,600
TOP BALAK
No.TanggalNamaPriceWin
115/12 02:03LK4DACHE99balak200,000
215/12 02:02TULOP93balak100,000
315/12 02:02TULOP93balak100,000
415/12 02:02YUSUP_KLLbalak20,000
515/12 02:00JUMAEDIbalak200,000
LATEST JACKPOT
No.TanggalNamaPriceWin
115/12 02:03CCROOT23murni kecil50,000
215/12 02:03PANDUGA99murni besar50,000
315/12 02:03AAN_2905murni besar5,000
415/12 02:03DEDERAWKmurni besar5,000
515/12 02:03LK4DACHE99balak200,000
615/12 02:03GLASSBIR82murni kecil50,000
715/12 02:02KUSUMA0301murni kecil50,000
815/12 02:02LK4DACHE99murni kecil50,000
915/12 02:02BUKAN_Umurni kecil5,000
1015/12 02:02LEDOG88murni kecil50,000
1115/12 02:02MENKCI88murni kecil50,000
1215/12 02:02W4WAY34murni kecil50,000
1315/12 02:02KOILKOIL32murni kecil25,000
1415/12 02:02TULOP93balak100,000
1515/12 02:02TULOP93balak100,000
1615/12 02:02YUSUP_KLLbalak20,000
1715/12 02:02MR_ZAKY212murni kecil50,000
1815/12 02:01JUMAEDImurni kecil50,000
1915/12 02:01JERRICK21murni kecil50,000
2015/12 02:01DENBAGUSAEmurni kecil5,000
2115/12 02:01JERRICK21murni kecil50,000
2215/12 02:01ABENK1711murni kecil5,000
2315/12 02:01DEN1986murni besar5,000
2415/12 02:01TJANmurni besar50,000
2515/12 02:01ALLE08murni kecil25,000
2615/12 02:01TULOP93murni kecil25,000
2715/12 02:01JAPUNG84murni kecil25,000
2815/12 02:01TULOP93murni kecil25,000
2915/12 02:01IPUL5758murni kecil5,000
3015/12 02:01AGUNGINSAPmurni kecil5,000
3115/12 02:01RAMARAAMmurni besar50,000
3215/12 02:01TAIK9murni besar50,000
3315/12 02:00KUSNANDAR2murni besar5,000
3415/12 02:00MASBEDmurni kecil50,000
3515/12 02:00ZADRACHmurni besar25,000
3615/12 02:00NNGTEAmurni kecil25,000
3715/12 02:00CAUGAMBLERmurni besar50,000
3815/12 02:00TAIK9murni kecil50,000
3915/12 02:00POPART28murni kecil50,000
4015/12 02:00MASLUKI69murni kecil5,000
4115/12 02:00CUCCI86murni kecil25,000
4215/12 02:00CHABELA99murni kecil50,000
4315/12 02:00ARAHA81murni kecil50,000
4415/12 02:00CANZZAWPmurni besar25,000
4515/12 02:00DM112390murni kecil25,000
4615/12 02:00R3MYmurni kecil5,000
4715/12 02:00POW6BDFI5Dmurni kecil50,000
4815/12 02:00JUMAEDIbalak200,000
4915/12 02:00BOY2510balak200,000
5015/12 02:00JUMAEDImurni kecil50,000